Charlottesville, VA

7:22 AM EDT on May 25, 2017 (GMT -0400)
Charlottesville-Albemarle

Weather History for KCHO - May, 2013

Change the Weather History Date:

Sunday, May 12, 2013

  Actual Average Record
Temperature  
Mean Temperature 57 °F 62 °F  
Max Temperature 67 °F 74 °F 93 °F (1911)
Min Temperature 47 °F 50 °F 38 °F (1913)
Degree Days  
Heating Degree Days 8 5  
Month to date heating degree days 78 68  
Since 1 July heating degree days 4137 4380  
Cooling Degree Days 0 2  
Month to date cooling degree days 10 15  
Year to date cooling degree days 54 36  
Growing Degree Days 8 (Base 50)    
Moisture  
Dew Point 35 °F    
Average Humidity 45    
Maximum Humidity 65    
Minimum Humidity 24    
Precipitation  
Precipitation 0.00 in 0.13 in 1.80 in (1974)
Month to date precipitation 2.58 1.37  
Year to date precipitation 14.86 13.86  
Sea Level Pressure  
Sea Level Pressure 29.87 in    
Wind  
Wind Speed 6 mph (NW)    
Max Wind Speed 16 mph    
Max Gust Speed 22 mph    
Visibility 10 miles    
Events      
T = Trace of Precipitation, MM = Missing Value Source: NWS Daily Summary

Daily Weather History Graph

Daily Weather History Graph

Search for Another Location

Airport or City:

Trip Planner

Search our weather history database for the weather conditions in past years. The results will help you decide how hot, cold, wet, or windy it might be!

Date:

Astronomy

May. 12, 2013 Rise Set
Actual Time 6:05 AM EDT 8:15 PM EDT
Civil Twilight 5:36 AM EDT 8:44 PM EDT
Nautical Twilight 5:00 AM EDT 9:20 PM EDT
Astronomical Twilight 4:21 AM EDT 9:59 PM EDT
Moon 7:59 AM EDT (5/12) 10:40 PM EDT (5/12)
Length of Visible Light 15h 08m
Length of Day
14h 09m
Waxing Crescent, 6% of the Moon is Illuminated
May 12
Waxing Crescent
May 18
First Quarter
May 25
Full
May 31
Last Quarter
Jun 8
New

Hourly Weather History & Observations

Time (EDT) Temp. Dew Point Humidity Pressure Visibility Wind Dir Wind Speed Gust Speed Precip Events Conditions
12:53 AM 66.9 °F 50.0 °F 54% 29.76 in 10.0 mi Variable 3.5 mph - N/A   Overcast
1:53 AM 64.9 °F 52.0 °F 63% 29.76 in 10.0 mi Calm Calm - N/A   Overcast
2:53 AM 63.0 °F 50.0 °F 63% 29.77 in 10.0 mi NW 4.6 mph - N/A   Clear
3:53 AM 62.1 °F 46.9 °F 58% 29.78 in 10.0 mi NW 5.8 mph - N/A   Partly Cloudy
4:53 AM 59.0 °F 44.1 °F 58% 29.79 in 10.0 mi NW 6.9 mph - N/A   Clear
5:53 AM 57.0 °F 39.9 °F 53% 29.80 in 10.0 mi WNW 3.5 mph - N/A   Clear
6:53 AM 57.9 °F 42.1 °F 56% 29.81 in 10.0 mi Calm Calm - N/A   Clear
7:53 AM 59.0 °F 45.0 °F 60% 29.83 in 10.0 mi Variable 4.6 mph - N/A   Partly Cloudy
8:53 AM 57.0 °F 39.0 °F 51% 29.86 in 10.0 mi NW 10.4 mph 20.7 mph N/A   Scattered Clouds
9:53 AM 60.1 °F 35.1 °F 39% 29.86 in 10.0 mi NW 10.4 mph 17.3 mph N/A   Clear
10:53 AM 61.0 °F 33.1 °F 35% 29.86 in 10.0 mi Variable 5.8 mph 16.1 mph N/A   Clear
11:53 AM 62.1 °F 33.1 °F 34% 29.86 in 10.0 mi Variable 6.9 mph - N/A   Clear
12:53 PM 64.0 °F 34.0 °F 33% 29.86 in 10.0 mi WNW 8.1 mph - N/A   Clear
1:53 PM 64.9 °F 30.0 °F 27% 29.86 in 10.0 mi West 8.1 mph - N/A   Clear
2:53 PM 64.9 °F 28.9 °F 26% 29.87 in 10.0 mi Variable 6.9 mph 18.4 mph N/A   Clear
3:53 PM 64.0 °F 26.1 °F 24% 29.87 in 10.0 mi WSW 8.1 mph - N/A   Partly Cloudy
4:53 PM 63.0 °F 28.0 °F 27% 29.88 in 10.0 mi NNW 10.4 mph - N/A   Scattered Clouds
5:53 PM 63.0 °F 28.0 °F 27% 29.91 in 10.0 mi NNW 12.7 mph 21.9 mph N/A   Clear
6:53 PM 60.1 °F 26.1 °F 27% 29.93 in 10.0 mi Variable 6.9 mph 16.1 mph N/A   Clear
7:53 PM 55.9 °F 27.0 °F 33% 29.96 in 10.0 mi NW 4.6 mph - N/A   Clear
8:53 PM 54.0 °F 26.1 °F 34% 29.99 in 10.0 mi NW 4.6 mph - N/A   Clear
9:53 PM 53.1 °F 26.1 °F 35% 30.03 in 10.0 mi Calm Calm - N/A   Clear
10:53 PM 51.1 °F 25.0 °F 36% 30.04 in 10.0 mi NW 4.6 mph - N/A   Clear
11:53 PM 48.9 °F 27.0 °F 43% 30.05 in 10.0 mi WNW 3.5 mph - N/A   Clear